Home > Weather > Rio Branco > Past weeks

Flag for Brazil Weather for the Past 2 Weeks in Rio Branco, Acre, Brazil

Now
88 °F

Partly sunny.


Feels Like: 98 °F
Forecast: 75 / 90 °F
Wind: 8 mph from North

Location: Rio Branco Airport

Current Time: Feb 13, 2016 at 1:08:04 PM

Latest Report: Feb 13, 2016 at 12:00 PM


Visibility: N/A

Pressure: 29.89 "Hg

Humidity: 66%

Dew point: 75 °F

Location of Rio BrancoLocation

Historic Weather in Rio Branco — Graph

°F

Rio Branco Temperature Yesterday

Maximum temperature yesterday: 84 °F (at 12:00 PM)
Minimum temperature yesterday: 73 °F (at 10:00 PM)
Average temperature yesterday: 77 °F

High & Low Weather Summary for the Past Weeks

 TemperatureHumidityPressure
High90 °F (Feb 10, 1:00 PM)100% (Jan 29, 8:00 PM)30.01 "Hg (Jan 29, 8:00 PM)
Low72 °F (Feb 1, 12:00 AM)62% (Feb 5, 2:00 PM)29.71 "Hg (Jan 30, 4:00 PM)
Average79 °F87%29.88 "Hg
* Reported Jan 29 12:00 Noon — Feb 13 12:00 Noon, Rio Branco, Weather by CustomWeather, © 2016

Note: Actual official high and low records may vary slightly from our data, if they occured in-between our weather recording intervals... More about our weather records

Advertising

Rio Branco Weather History for the Previous 24 Hours

 ConditionsComfort  
Time TempWeatherWind HumidityBarometerVisibility
12:00 PM
Sat, Feb 13
88 °FPartly sunny.8 mph66%29.89 "HgN/A
11:00 AM86 °FPartly sunny.8 mph66%29.92 "HgN/A
10:00 AM86 °FScattered clouds.6 mph66%29.92 "HgN/A
9:00 AM84 °FSunny.6 mph70%29.92 "Hg10 mi
8:00 AM81 °FSunny.8 mph79%29.92 "Hg10 mi
7:00 AM77 °FSunny.6 mph89%29.92 "Hg10 mi
6:00 AM73 °FClear.2 mph94%29.89 "Hg10 mi
5:00 AM73 °FClear.2 mph94%29.86 "Hg10 mi
4:00 AM73 °FClear.No wind94%29.86 "Hg10 mi
3:00 AM73 °FClear.2 mph100%29.86 "Hg10 mi
2:00 AM73 °FClear.No wind94%29.86 "Hg10 mi
1:00 AM73 °FClear.No wind94%29.86 "Hg10 mi
12:00 AM73 °FClear.No wind94%29.86 "Hg10 mi
11:00 PM
Fri, Feb 12
73 °FClear.3 mph94%29.89 "Hg10 mi
10:00 PM73 °FClear.1 mph94%29.89 "Hg10 mi
9:00 PM75 °FClear.2 mph94%29.86 "Hg10 mi
8:00 PM75 °FClear.6 mph94%29.86 "Hg10 mi
7:00 PM75 °FClear.No wind94%29.83 "Hg10 mi
6:00 PM77 °FSunny.3 mph89%29.80 "Hg10 mi
5:00 PM79 °FSunny.3 mph79%29.83 "Hg10 mi
4:00 PM77 °FScattered clouds.8 mph83%29.83 "HgN/A
3:00 PM79 °FBroken clouds.10 mph89%29.86 "HgN/A
2:00 PM79 °FBroken clouds.6 mph94%29.89 "HgN/A
1:00 PM77 °FHeavy rain. Partly sunny.13 mph89%29.92 "Hg2 mi
Weather by CustomWeather, © 2016

See weather overviewHow to use our weather pages